Location: Crescent
(42.8242°N, 73.7329°W)
Time: 12:47:45
(UTC+00:00)

Explorer 7 - Pass Details

Date: 21 February 2026
Orbit: 430 x 540 km, 50.2° (Epoch: 17 March)

Event Time Altitude Azimuth Distance (km) Brightness Sun altitude
Rises 01:17:44 0° 294° (WNW) 2,548 11.4 -30.7°
Reaches altitude 10° 01:20:00 10° 285° (WNW) 1,686 10.2 -31.1°
Enters shadow 01:21:21 19° 272° (W) 1,236 9.3 -31.3°
Maximum altitude 01:23:27 33° 221° (SW) 873 - -31.7°
Drops below altitude 10° 01:27:00 10° 156° (SSE) 1,737 - -32.3°
Sets 01:29:23 0° 147° (SSE) 2,639 - -32.7°
